STARLINK-31907, 59797

Orbit data source: Space-Track

STARLINK-31907, 59797 is a payload satellite owned by SpaceX/Seattle (US) in LEO that was launched on Sat, 18 May 2024 UTC via an FALCON 9 launch vehicle from the Air Force Eastern Test Range (AFETR). Payload-class satellites include a variety of spacecraft equipped with specific instruments for various scientific and technological missions. These include communications satellites like Starlink; space stations such as the ISS; scientific satellites like the Hubble; Earth observation satellites from companies like Planet Labs, Umbra, and HawkEye 360; GPS; miniature CubeSats for education and research; and military/defense satellites.

Loading next visibility...
Identifier
59797, 2024-093R
Orbit
LEO
Country
Flag of USUS
Related business
Manufacturer
SpaceX/Seattle
Mission
Operational Commercial Communications
Bus & Motor
STARLINK V2M, Unknown motor
Mass
730 kg wet, ~700 kg dry
Launch date (UTC)
2024-05-18 (2 years ago)
Launch vehicle
FALCON 9
Launch site
Air Force Eastern Test Range (AFETR)
Object type
Payload
Rocket body
Debris
Shape & HBR
Box + 2 Pan, 17.7 m
Radar Cross Section
33.884 m², Large (>1 m²)

Expand to show TLE details & history
Last TLE update: 2 days ago

TLE from 2 days ago
0 STARLINK-31907
1 59797U 24093R   26171.20693404  .00002874  00000-0  11401-3 0  9991
2 59797  43.0039 349.9718 0001453 281.3383  78.7305 15.27553911118379
Epoch: 2026-06-20T04:57Z
TLE epoch observation values (Epoch: 2026-06-20T04:57:59.101Z)
Latitude
-0.00003°
Longitude
7.05064°
Altitude
482.708 km
Speed
7.626 km/s
True Right ascension
23h 19m 53s
True Declination
0° 00' 00"
Sunlit
Object was in daylight at epoch
Visualization orbit readout
Latitude
Unknown
Longitude
Unknown
Altitude
Unknown
Speed
Unknown
Apparent Right ascension
Unknown
Apparent Declination
Unknown
Sunlit
N/A
Visualization observer readout
Local Sidereal Time
23:19:30
Azimuth
Unknown
Elevation
Unknown
Doppler factor
Unknown
Orbital elements
Apogee altitude
486.069 km
Perigee altitude
484.074 km
Semi-major axis
6,863.209 km
Eccentricity
0.00015
Inclination
43.0039°
RAAN
349.9718°
Arg. of periapsis
281.3383°
True anomaly
78.74683°
Mean anomaly
78.7305°
Eccentric anomaly
78.73866°
Mean motion
3.81727 °/min
Orbital period
94.31 mins
BSTAR
0.00011401
Loading maneuver chart data...
Computing Atmospheric mass density...
Loading historical data...
Loading historical data...
Loading historical data...
Loading historical data...
Loading historical data...
Loading historical data...
Loading historical data...

Documentation

Showing up to 5 results
|